| time (UTC) | temp F | wind direction | speed MPH | gust MPH | rain 1hr in | rain 24hr in | rain mn in | humidity % | barometer mb |
| 20260506190058 | 40 | 222 | 3.0 | 0.0 | 0.00 | 0.00 | 0.03 | 74 | 1013.4 |
| 20260506184607 | 41 | 222 | 3.0 | 0.0 | 0.00 | 0.00 | 0.03 | 73 | 1013.4 |
| 20260506183055 | 41 | 222 | 3.0 | 0.0 | 0.00 | 0.00 | 0.03 | 72 | 1013.4 |
| 20260506181555 | 42 | 229 | 5.0 | 0.0 | 0.00 | 0.00 | 0.03 | 73 | 1013.4 |
| 20260506180055 | 43 | 255 | 5.0 | 0.0 | 0.00 | 0.00 | 0.03 | 73 | 1013.3 |
| 20260506174554 | 43 | 223 | 5.0 | 0.0 | 0.00 | 0.00 | 0.03 | 72 | 1013.3 |
| 20260506173107 | 43 | 215 | 5.0 | 0.0 | 0.00 | 0.00 | 0.03 | 68 | 1013.3 |
| 20260506171557 | 43 | 263 | 3.0 | 0.0 | 0.00 | 0.00 | 0.03 | 68 | 1013.1 |
| 20260506170100 | 43 | 228 | 4.0 | 0.0 | 0.00 | 0.00 | 0.03 | 66 | 1013.2 |
| 20260506164611 | 44 | 246 | 4.0 | 0.0 | 0.00 | 0.00 | 0.03 | 65 | 1013.3 |
| 20260506163058 | 45 | 246 | 5.0 | 0.0 | 0.00 | 0.00 | 0.03 | 62 | 1013.4 |
| 20260506161552 | 45 | 239 | 5.0 | 0.0 | 0.00 | 0.00 | 0.03 | 65 | 1013.3 |
| 20260506160105 | 46 | 238 | 5.0 | 0.0 | 0.00 | 0.00 | 0.03 | 65 | 1013.2 |
| 20260506154553 | 45 | 291 | 7.0 | 0.0 | 0.00 | 0.00 | 0.03 | 66 | 1013.2 |
| 20260506153048 | 45 | 276 | 6.0 | 0.0 | 0.00 | 0.00 | 0.03 | 65 | 1013.1 |
| 20260506151547 | 45 | 301 | 8.0 | 0.0 | 0.00 | 0.00 | 0.03 | 63 | 1013.2 |
| 20260506150047 | 44 | 273 | 10.0 | 0.0 | 0.00 | 0.00 | 0.03 | 63 | 1013.3 |
| 20260506144547 | 44 | 278 | 10.0 | 0.0 | 0.00 | 0.00 | 0.03 | 66 | 1013.4 |
| 20260506143045 | 44 | 265 | 9.0 | 0.0 | 0.00 | 0.00 | 0.03 | 66 | 1013.4 |
| 20260506141604 | 43 | 315 | 9.0 | 0.0 | 0.00 | 0.00 | 0.03 | 66 | 1013.3 |
| 20260506140045 | 45 | 288 | 9.0 | 0.0 | 0.00 | 0.00 | 0.03 | 65 | 1013.3 |
| 20260506134544 | 44 | 284 | 9.0 | 0.0 | 0.00 | 0.00 | 0.03 | 65 | 1013.3 |
| 20260506133043 | 44 | 302 | 10.0 | 0.0 | 0.00 | 0.00 | 0.03 | 66 | 1013.4 |
| 20260506131544 | 44 | 288 | 10.0 | 0.0 | 0.00 | 0.00 | 0.03 | 70 | 1013.3 |
| 20260506130042 | 43 | 287 | 10.0 | 0.0 | 0.00 | 0.00 | 0.03 | 71 | 1013.3 |
| 20260506124542 | 43 | 312 | 12.0 | 0.0 | 0.00 | 0.00 | 0.03 | 73 | 1013.3 |
| 20260506123044 | 43 | 290 | 5.0 | 0.0 | 0.00 | 0.00 | 0.03 | 72 | 1013.1 |
| 20260506121543 | 43 | 238 | 4.0 | 0.0 | 0.00 | 0.00 | 0.03 | 73 | 1013.2 |
| 20260506120105 | 44 | 262 | 6.0 | 0.0 | 0.00 | 0.00 | 0.02 | 73 | 1013.1 |
| 20260506114543 | 43 | 234 | 5.0 | 0.0 | 0.00 | 0.00 | 0.02 | 71 | 1013.1 |
| 20260506113037 | 42 | 229 | 5.0 | 0.0 | 0.00 | 0.00 | 0.02 | 78 | 1013.1 |
| 20260506111539 | 39 | 196 | 5.0 | 0.0 | 0.00 | 0.00 | 0.02 | 81 | 1013.0 |
| 20260506110036 | 41 | 247 | 7.0 | 0.0 | 0.00 | 0.00 | 0.02 | 70 | 1012.9 |
| 20260506104535 | 43 | 244 | 6.0 | 0.0 | 0.00 | 0.00 | 0.02 | 65 | 1012.7 |
| 20260506103033 | 43 | 200 | 7.0 | 0.0 | 0.00 | 0.00 | 0.02 | 69 | 1012.6 |
| 20260506101530 | 43 | 264 | 7.0 | 0.0 | 0.00 | 0.00 | 0.02 | 69 | 1012.6 |
| 20260506100033 | 42 | 223 | 6.0 | 0.0 | 0.00 | 0.00 | 0.02 | 74 | 1012.7 |
| 20260506094535 | 42 | 220 | 4.0 | 0.0 | 0.00 | 0.00 | 0.02 | 76 | 1012.8 |
| 20260506093042 | 41 | 200 | 3.0 | 0.0 | 0.00 | 0.00 | 0.02 | 81 | 1012.8 |
| 20260506091528 | 39 | 205 | 5.0 | 0.0 | 0.00 | 0.00 | 0.02 | 84 | 1012.8 |
| 20260506090027 | 37 | 216 | 7.0 | 0.0 | 0.00 | 0.00 | 0.02 | 81 | 1012.9 |
| 20260506084526 | 38 | 211 | 6.0 | 0.0 | 0.00 | 0.00 | 0.02 | 77 | 1012.8 |
| 20260506083025 | 40 | 252 | 6.0 | 0.0 | 0.00 | 0.00 | 0.02 | 77 | 1012.7 |
| 20260506081525 | 43 | 205 | 6.0 | 0.0 | 0.00 | 0.00 | 0.02 | 72 | 1012.6 |
| 20260506073020 | 41 | 221 | 5.0 | 0.0 | 0.00 | 0.00 | 0.02 | 74 | 1012.4 |
| 20260506071519 | 41 | 219 | 6.0 | 0.0 | 0.00 | 0.00 | 0.02 | 75 | 1012.4 |
| 20260506061521 | 41 | 197 | 4.0 | 0.0 | 0.00 | 0.00 | 0.02 | 75 | 1012.1 |
| 20260506044517 | 39 | 252 | 5.0 | 0.0 | 0.00 | 0.00 | 0.02 | 74 | 1011.9 |
| 20260506043014 | 39 | 274 | 8.0 | 0.0 | 0.00 | 0.00 | 0.02 | 73 | 1011.9 |
| 20260506041508 | 38 | 280 | 9.0 | 0.0 | 0.00 | 0.00 | 0.02 | 72 | 1012.0 |
| 20260506040007 | 38 | 274 | 6.0 | 0.0 | 0.00 | 0.00 | 0.02 | 72 | 1012.0 |
| 20260506034508 | 37 | 269 | 4.0 | 0.0 | 0.00 | 0.00 | 0.02 | 72 | 1011.9 |
| 20260506033007 | 38 | 270 | 4.0 | 0.0 | 0.00 | 0.00 | 0.02 | 71 | 1011.9 |
| 20260506031513 | 38 | 271 | 3.0 | 0.0 | 0.00 | 0.00 | 0.02 | 70 | 1011.8 |
| 20260506030007 | 37 | 271 | 4.0 | 0.0 | 0.00 | 0.00 | 0.02 | 71 | 1011.9 |
| 20260506024504 | 37 | 271 | 9.0 | 0.0 | 0.00 | 0.00 | 0.02 | 74 | 1012.2 |
| 20260506023002 | 37 | 286 | 10.0 | 0.0 | 0.00 | 0.00 | 0.02 | 82 | 1012.3 |
| 20260506021502 | 38 | 283 | 12.0 | 0.0 | 0.00 | 0.00 | 0.02 | 84 | 1012.3 |
| 20260506020059 | 37 | 169 | 2.0 | 0.0 | 0.00 | 0.00 | 0.02 | 87 | 1012.2 |
| 20260506014602 | 36 | 103 | 1.0 | 0.0 | 0.00 | 0.00 | 0.02 | 87 | 1012.3 |
| 20260506013100 | 36 | 103 | 2.0 | 0.0 | 0.00 | 0.00 | 0.02 | 87 | 1012.3 |
| 20260506011600 | 36 | 55 | 2.0 | 0.0 | 0.00 | 0.00 | 0.01 | 86 | 1012.3 |
| 20260506010100 | 36 | 10 | 1.0 | 0.0 | 0.00 | 0.00 | 0.01 | 86 | 1012.4 |
| 20260506004627 | 36 | 10 | 0.0 | 0.0 | 0.00 | 0.00 | 0.01 | 86 | 1012.3 |
| 20260506003057 | 36 | 10 | 1.0 | 0.0 | 0.00 | 0.00 | 0.01 | 85 | 1012.3 |
| 20260506001559 | 36 | 346 | 1.0 | 0.0 | 0.00 | 0.00 | 0.01 | 85 | 1012.4 |
| 20260506000054 | 36 | 346 | 1.0 | 0.0 | 0.00 | 0.00 | 0.01 | 86 | 1012.4 |
| 20260505234613 | 36 | 346 | 0.0 | 0.0 | 0.00 | 0.00 | 0.01 | 86 | 1012.4 |
| 20260505233053 | 36 | 346 | 0.0 | 0.0 | 0.00 | 0.00 | 0.01 | 86 | 1012.4 |
| 20260505231553 | 36 | 346 | 3.0 | 0.0 | 0.00 | 0.00 | 0.01 | 86 | 1012.5 |
| 20260505230053 | 36 | 346 | 2.0 | 0.0 | 0.00 | 0.00 | 0.01 | 85 | 1012.4 |
| 20260505224551 | 36 | 336 | 4.0 | 0.0 | 0.00 | 0.00 | 0.01 | 84 | 1012.4 |
| 20260505223059 | 38 | 348 | 5.0 | 0.0 | 0.00 | 0.00 | 0.01 | 82 | 1012.5 |
| 20260505221558 | 39 | 278 | 6.0 | 0.0 | 0.00 | 0.00 | 0.00 | 77 | 1012.4 |
| 20260505220046 | 38 | 300 | 0.0 | 0.0 | 0.00 | 0.00 | 0.09 | 72 | 1012.4 |
| 20260505214552 | 38 | 300 | 0.0 | 0.0 | 0.00 | 0.00 | 0.09 | 71 | 1012.4 |
| 20260505213043 | 39 | 300 | 0.0 | 0.0 | 0.00 | 0.00 | 0.09 | 70 | 1012.3 |
| 20260505211539 | 38 | 300 | 0.0 | 0.0 | 0.00 | 0.00 | 0.09 | 70 | 1012.2 |
| 20260505210039 | 38 | 300 | 0.0 | 0.0 | 0.00 | 0.00 | 0.09 | 70 | 1012.3 |
| 20260505204538 | 38 | 300 | 0.0 | 0.0 | 0.00 | 0.00 | 0.09 | 71 | 1012.3 |
| 20260505203038 | 38 | 300 | 0.0 | 0.0 | 0.00 | 0.00 | 0.09 | 70 | 1012.3 |
| 20260505201538 | 38 | 300 | 0.0 | 0.0 | 0.00 | 0.00 | 0.09 | 69 | 1012.3 |
| 20260505200037 | 38 | 300 | 0.0 | 0.0 | 0.00 | 0.00 | 0.09 | 69 | 1012.4 |
| 20260505194538 | 39 | 300 | 1.0 | 0.0 | 0.00 | 0.00 | 0.09 | 69 | 1012.2 |
| 20260505193035 | 39 | 300 | 1.0 | 0.0 | 0.00 | 0.00 | 0.09 | 68 | 1012.1 |
| 20260505191535 | 40 | 300 | 1.0 | 0.0 | 0.00 | 0.00 | 0.09 | 66 | 1011.9 |